Location: Maiden_LMO
(35.5760°N, 81.2120°W)
Time: 06:04:44
(UTC-04:00)

Daily predictions for brighter satellites

Satellite Brightness Start Highest point End
(mag) Time Altitude Azimuth Time Altitude Azimuth Time Altitude Azimuth
CZ-3C R/B 4.3 19:52:37 10° SW 20:54:42 33° S 21:04:21 10° ESE
Cosmos 2263 Rocket 3.2 20:52:16 10° SW 20:57:48 54° WNW 21:03:20 10° NNE
Cosmos 2221 Rocket 3.9 20:55:12 10° NNW 20:59:38 72° W 21:04:02 10° S
SL-8 R/B 4.0 20:55:13 10° WSW 21:00:03 76° NW 21:04:52 10° NE
Meteor 1-26 Rocket 4.4 20:54:10 10° N 21:00:04 82° E 21:05:58 10° S
GPS 2-05 Rocket1 4.1 21:03:26 10° SSW 21:06:34 26° SSE 21:09:39 10° E
PSLV R/B 4.3 21:03:29 10° WNW 21:06:45 41° NNE 21:10:04 10° E
ERS-1 Rocket 3.7 21:03:33 10° SE 21:08:09 37° ENE 21:12:45 10° N
Cosmos 1340 Rocket 2.8 21:06:26 10° S 21:10:24 85° E 21:14:25 10° N
Cosmos 2181 Rocket 4.2 21:04:02 10° N 21:10:30 88° W 21:16:52 10° S
Meteor 2-10 Rocket 4.1 21:05:25 10° N 21:11:02 49° ENE 21:16:29 10° SSE
Cosmos 909 Rocket 4.2 21:04:58 10° SSW 21:11:17 78° ESE 21:18:45 10° NNE
CZ-4 DEB 3.0 21:11:45 10° SSE 21:14:49 49° ENE 21:17:54 10° N
Abrixas rocket 2.3 21:11:42 10° NW 21:15:07 84° SW 21:18:14 12° SE
Cosmos 1782 3.9 21:17:21 10° NNE 21:20:49 27° ENE 21:23:47 13° SE
Atlas Centaur 2 1.7 21:17:45 10° WSW 21:21:03 35° S 21:23:48 14° ESE
USA 186 2.2 21:18:33 10° S 21:21:30 59° W 21:24:40 10° NNW
Cosmos 1939 Rocket 3.7 21:19:41 11° SE 21:22:53 32° ENE 21:26:23 10° N
H-2A R/B 3.0 21:21:11 12° SE 21:24:38 30° ENE 21:28:22 10° N
USA 234 4.4 21:20:34 10° E 21:24:48 18° ESE 21:29:00 10° SSE
Cosmos 1606 4.4 21:23:49 10° NNE 21:26:38 18° ENE 21:28:25 14° ESE
Cosmos 2074 Rocket 4.0 21:20:56 10° S 21:27:12 76° E 21:33:28 10° N
Cosmos 1892 2.7 21:26:42 10° S 21:30:30 84° W 21:34:21 10° N
H-2A R/B 4.0 21:32:14 10° SSW 21:35:42 39° W 21:39:12 10° NNW
Cosmos 1184 Rocket 4.5 21:45:10 18° E 21:45:10 18° E 21:47:21 10° NE
Okean 2 Rocket 4.4 21:45:32 19° ESE 21:46:32 21° E 21:49:48 10° NE
Cosmos 2056 Rocket 3.8 21:41:54 10° SSW 21:47:03 68° WNW 21:52:11 10° NNE
Meteor 2-6 Rocket 4.3 21:43:46 10° N 21:49:42 67° E 21:54:28 16° SSE
CENTAUR R/B 3.2 21:42:57 10° NNW 21:50:58 80° WSW 21:58:04 15° SSE
Sich 1 Rocket 3.6 21:48:30 10° S 21:53:03 72° E 21:57:37 10° N
Cosmos 1674 Rocket 3.5 21:51:12 10° N 21:55:41 80° E 21:58:53 18° S
CZ-4 SHROUD 4.1 21:59:37 29° E 21:59:53 30° ENE 22:02:39 10° N
Cosmos 2341 Rocket 4.2 21:57:20 14° SSE 22:02:37 54° E 22:08:42 10° NNE
ARGOS 4.2 22:01:08 22° ESE 22:03:16 29° ENE 22:07:51 10° N
COSMOS 2406 3.4 21:59:53 10° NNW 22:05:37 71° WSW 22:09:46 19° S
Cosmos 1782 Rocket 4.0 22:04:17 30° SE 22:05:56 42° E 22:10:09 10° NNE
ATLAS 5 CENTAUR R/B 2.5 22:00:28 10° NW 22:06:36 76° WSW 22:10:52 23° SSE
SL-27 R/B 2.5 22:04:01 10° NNW 22:07:40 77° WSW 22:09:10 33° S
COS B Rocket 3.1 22:04:33 10° N 22:08:39 69° E 22:10:09 34° SSE
PSLV R/B 3.2 22:12:35 52° ENE 22:12:35 52° ENE 22:15:27 10° N
Okean 3 3.9 22:10:01 10° N 22:14:06 43° E 22:14:59 38° ESE
COSMOS 2487 3.7 22:12:40 10° N 22:15:51 28° ENE 22:15:53 28° ENE
Cosmos 2278 Rocket 2.1 22:11:50 10° S 22:17:27 70° ESE 22:23:07 10° NNE
Cosmos 1238 Rocket 2.5 22:16:45 10° N 22:19:58 56° E 22:20:11 55° E
SPOT 5 3.0 22:17:33 27° SSE 22:20:31 90° W 22:25:54 10° NNW
EO 1 Delta rocket 4.5 22:14:30 10° N 22:20:39 70° WNW 22:25:36 10° SSW
Cosmos 1844 4.0 22:15:24 10° SSW 22:21:07 71° WNW 22:26:55 10° NNE
Cosmos 1825 2.1 22:21:19 37° S 22:22:45 89° W 22:26:35 10° N
Envisat 3.5 22:20:01 19° S 22:23:37 58° W 22:28:38 10° NNW
SL-8 Rocket 4.3 22:21:27 31° SE 22:23:54 46° E 22:29:49 10° NNE
Cosmos 962 Rocket 4.4 22:19:01 17° S 22:23:57 81° E 22:30:10 10° N
ISS -3.4 22:21:07 10° SW 22:24:22 82° NW 22:25:57 27° NE
Cosmos 1975 Rocket 3.3 22:20:30 10° N 22:24:41 48° E 22:25:16 45° ESE
Cosmos 1844 Rocket 3.8 22:20:30 10° SW 22:25:54 46° WNW 22:31:20 10° N
Terra 3.5 22:25:43 18° ENE 22:26:05 18° ENE 22:29:19 10° NNE
Cosmos 1862 3.6 22:24:04 23° SSW 22:26:30 68° W 22:30:34 10° N
YAOGAN 6 2.3 22:29:23 76° SE 22:29:35 81° ENE 22:33:06 10° N
Cosmos 1408 2.8 22:29:48 39° SSW 22:31:00 68° W 22:34:39 10° N
Cosmos 1908 Rocket 4.3 22:27:13 13° SSW 22:31:01 51° W 22:35:22 10° N
Cosmos 2154 Rocket 4.3 22:26:07 10° SSW 22:32:17 67° W 22:38:28 10° N
ERBS 3.6 22:30:24 10° WNW 22:33:29 31° SW 22:33:43 30° SW
Cosmos 1420 Rocket 3.9 22:31:27 33° S 22:33:47 67° ESE 22:38:59 10° NNE
H-2A R/B 3.1 22:34:39 29° E 22:35:31 30° ENE 22:40:08 10° N
MetOp-A 4.2 22:34:31 33° S 22:36:59 76° WSW 22:42:21 10° NNW
Cosmos 1378 Rocket 3.7 22:35:03 10° NNW 22:39:20 67° W 22:40:33 44° SSW
USA 245 3.3 22:40:06 55° N 22:40:06 55° N 22:43:04 10° N
Cosmos 2082 Rocket 3.5 22:35:24 10° N 22:40:06 26° ENE 22:41:15 24° ENE
PSLV R/B 4.2 22:40:59 10° WNW 22:43:37 42° WSW 22:43:37 42° WSW
Cosmos 1242 Rocket 3.1 22:40:59 10° N 22:43:57 49° NE 22:43:57 49° NE
GPS 2-05 Rocket1 3.9 22:40:59 10° WSW 22:43:27 39° WSW 22:43:27 39° WSW
Cosmos 407 Rocket 4.3 22:41:09 10° NNW 22:46:11 47° WSW 22:48:30 29° SSW
Cosmos 1295 Rocket 4.4 22:43:50 29° S 22:47:16 89° E 22:53:36 10° N
BREEZE-M DEB (TANK) 4.1 22:45:18 10° W 22:47:09 28° SW 22:47:09 28° SW
CZ-4C R/B 4.4 22:49:12 33° NE 22:49:12 33° NE 22:52:08 10° N
Cosmos 2297 3.6 22:48:47 49° SSE 22:50:07 65° ESE 22:55:48 10° NNE
SPOT 1/Viking Rocket 3.5 22:49:15 51° S 22:50:36 85° WSW 22:55:50 10° NNW
SL-08 RB Rocket 3.6 22:51:07 68° ESE 22:51:24 71° ENE 22:56:01 10° N
Cosmos 2151 Rocket 4.2 22:52:34 44° ENE 22:52:34 44° ENE 22:56:14 10° NNE
Meteor 1-27 Rocket 4.5 22:46:54 10° NNW 22:52:12 47° W 22:55:04 25° SSW
Cosmos 614 Rocket 4.4 22:47:28 10° N 22:52:17 42° ENE 22:52:31 42° ENE
Cosmos 1140 Rocket 3.3 22:52:37 10° NNW 22:57:46 78° ENE 22:58:17 70° SE
Cosmos 489 Rocket 4.3 22:52:58 10° NNW 22:59:12 88° ENE 23:00:44 54° SSE
H-2A R/B 4.3 22:58:19 13° SW 23:00:38 19° W 23:03:45 10° NW
NOAA 11 4.2 22:59:38 55° S 23:00:53 81° WSW 23:06:25 10° NNW
Cosmos 2366 rocket 3.9 23:01:48 55° SSE 23:03:05 70° E 23:09:23 10° NNE
USA 234 3.1 23:01:42 10° NE 23:08:17 86° SE 23:14:48 10° SW
Atlas Centaur 2 3.7 23:06:09 10° WSW 23:06:28 12° WSW 23:06:28 12° WSW
CZ-4B R/B 4.3 23:06:00 10° N 23:10:43 45° WNW 23:13:01 26° SW
CZ-4 R/B 4.4 23:12:42 10° N 23:17:13 51° WNW 23:18:11 43° WSW
Cosmos 1850 Rocket 4.0 23:21:14 10° NNW 23:26:29 76° W 23:26:29 76° W
Cosmos 2218 Rocket 4.3 23:25:46 42° SW 23:27:52 64° W 23:34:15 10° N
DMSP B5D2-2 4.0 23:24:17 10° NNE 23:29:16 81° N 23:29:16 81° N
Meteor 1-20 Rocket 4.2 23:33:05 74° NE 23:33:05 74° NE 23:38:12 10° N
Meteor 1-25 Rocket 4.3 23:39:52 73° WSW 23:40:07 75° W 23:45:58 10° N
ARGOS 4.4 23:42:39 29° WSW 23:43:23 30° W 23:48:04 10° NW
Cosmos 1727 Rocket 4.0 23:41:40 10° NNW 23:47:48 70° W 23:48:04 69° WSW
